Regional Weather Roundup
Issued by NWS Green Bay, WI

Home | Current Version | Previous Version | Text Only | Print | Product List | Glossary On
Versions: 1 2 3 4 5 6 7 8 9 10 11 12 13 14 15 16 17 18 19 20 21 22 23 24 25 26 27 28 29 30 31 32 33 34 35 36 37 38 39 40 41 42 43 44 45 46 47 48 49 50
000
ASUS43 KGRB 201911
RWRGRB

NORTH-CENTRAL AND NORTHEAST WISCONSIN REGIONAL WEATHER ROUNDUP
NATIONAL WEATHER SERVICE GREEN BAY WI
100 PM CST MON FEB 20 2017

WIZ005-009-010>012-018-019-202000-
NORTH CENTRAL WISCONSIN

CITY           SKY/WX    TMP DP  RH WIND       PRES   REMARKS
IRONWOOD       CLOUDY    51  40  65 S20G29    29.83F
MANITOWISH WTR CLOUDY    46  38  73 SE16G23   29.88F
ARBOR VITAE    CLOUDY    51  41  68 SE14      29.89F
EAGLE RIVER    CLOUDY    50  35  57 SE12G18   29.94F
LAND O LAKES   CLOUDY    49  37  62 SE13G21   29.94F
RHINELANDER    CLOUDY    51  40  65 SE15G24   29.93F
PHILLIPS       CLOUDY    47  40  76 SE10G18   29.83F
ANTIGO         CLOUDY    44  35  72 SE14      29.96F
TOMAHAWK       CLOUDY    49  38  66 SE7       29.89F
MERRILL        NOT AVBL
$$

WIZ013-073-202000-
NORTHEAST WISCONSIN

CITY           SKY/WX    TMP DP  RH WIND       PRES   REMARKS
IRON MOUNTAIN  CLOUDY    44  30  57 SE8       30.02F
MARINETTE      CLOUDY    43  33  68 SE9       30.08F
OCONTO         CLOUDY    49  34  55 SE9       30.06F
$$

WIZ017-030-035>037-045-202000-
CENTRAL WISCONSIN

CITY           SKY/WX    TMP DP  RH WIND       PRES   REMARKS
MEDFORD        CLOUDY    46  38  73 SE10G18   29.86F
WAUSAU         MOSUNNY   47  38  71 SE10G22   29.91F
MOSINEE        CLOUDY    46  39  76 E13       29.93F
MARSHFIELD     CLOUDY    45  38  76 SE13      29.88F
WISC RAPIDS    PTSUNNY   56  48  74 SE14G21   29.91F
STEVENS POINT  CLOUDY    48  40  76 SE9       29.94F
WAUPACA        CLOUDY    55  44  67 E15       29.96F
SHAWANO        CLOUDY    52  41  65 SE8       30.02F
CLINTONVILLE   CLOUDY    50  37  62 SE9G18    30.00F
WAUTOMA        CLOUDY    57  50  77 SE16      29.94F
$$

WIZ038-039-048-051-202000-
FOX VALLEY

CITY           SKY/WX    TMP DP  RH WIND       PRES   REMARKS
NWS GREEN BAY  CLOUDY    51  44  77 SE13      30.04F
APPLETON       PTSUNNY   50  39  66 SE13G20   29.99F
OSHKOSH        CLOUDY    53  44  71 SE16      29.98F
FOND DU LAC    CLOUDY    55  44  66 SE15G22   29.99F
$$

WIZ022-050-052-202000-
EAST CENTRAL WISCONSIN

CITY           SKY/WX    TMP DP  RH WIND       PRES   REMARKS
EPHRAIM        FAIR      46  33  61 SE10G16   30.09F
WASHINGTON ISL FAIR      41  32  70 SE3       30.11F
STURGEON BAY   CLOUDY    47  34  60 SE14G21   30.07F
MANITOWOC      CLOUDY    44  34  67 MISG      30.07F
SHEBOYGAN      CLOUDY    47  39  74 SE10      30.05F
$$

LMZ563-521-522-541>543-202000-
LAKESHORE

STATION/POSITION TIME  TEMP    WIND        PRES    VSBY  WAVE
                       AIR SEA DIR/SP/G                  HT/PER
                 (UTC) (F)     (DEG/KT/KT) (MB)    (MI)  (FT/S)
SHEBOYGAN LKSHOR 1900   39     140/  9/ 10 1018.3F
KEWAUNEE LKSHORE 1848   39     180/  8/  9 1018.4F
NORTHPORT PIER   1840   37      CALM  /  4 1020.0F
SISTER BAY LKSHO 1835   45     140/  8/ 11   N/A
CHAMBERS ISLAND  1840   46     110/  5/  8 1019.0F
MENOMINEE LKSHOR 1848   37      70/  9/  9 1017.8F
$$




USA.gov is the U.S. government's official web portal to all federal, state and local government web resources and services.